Time,TemperatureF,DewpointF,PressureIn,WindDirection,WindDirectionDegrees,WindSpeedMPH,WindSpeedGustMPH,Humidity,HourlyPrecipIn,Conditions,Clouds,dailyrainin,SoftwareType,DateUTC
2013-04-01 00:03:00,54.9,53.2,30.10,SSW,208,0.0,3.0,94,0.04,,,0.04,meteohub,2013-04-01 07:03:00,
2013-04-01 00:09:00,54.9,53.2,30.10,SSW,208,1.0,3.0,94,0.04,,,0.04,meteohub,2013-04-01 07:09:00,
2013-04-01 00:14:00,54.9,53.2,30.10,SSW,208,0.0,2.0,94,0.04,,,0.04,meteohub,2013-04-01 07:14:00,
2013-04-01 00:19:00,54.9,53.2,30.10,SSW,208,0.0,2.0,94,0.04,,,0.04,meteohub,2013-04-01 07:19:00,
2013-04-01 00:25:00,54.9,53.2,30.10,SSW,207,2.0,2.0,94,0.03,,,0.04,meteohub,2013-04-01 07:25:00,
2013-04-01 00:30:00,54.9,53.2,30.10,SSW,209,2.0,3.0,94,0.01,,,0.04,meteohub,2013-04-01 07:30:00,
2013-04-01 00:35:00,54.9,53.2,30.10,SSW,208,0.0,3.0,94,0.00,,,0.04,meteohub,2013-04-01 07:35:00,
2013-04-01 00:40:00,54.9,53.2,30.11,SSW,207,0.0,2.0,94,0.00,,,0.04,meteohub,2013-04-01 07:40:00,
2013-04-01 00:46:00,54.9,53.2,30.11,SSW,208,2.0,2.0,94,0.00,,,0.04,meteohub,2013-04-01 07:46:00,
2013-04-01 00:51:00,54.5,52.9,30.11,WSW,247,3.0,7.0,94,0.01,,,0.05,meteohub,2013-04-01 07:51:00,
2013-04-01 00:57:00,54.1,52.5,30.11,West,259,0.0,8.0,94,0.08,,,0.12,meteohub,2013-04-01 07:57:00,
2013-04-01 01:02:00,54.1,52.5,30.11,West,259,0.0,8.0,94,0.11,,,0.15,meteohub,2013-04-01 08:02:00,
2013-04-01 01:07:00,54.1,52.5,30.11,WSW,258,0.0,6.0,94,0.13,,,0.17,meteohub,2013-04-01 08:07:00,
2013-04-01 01:12:00,54.1,52.5,30.11,WSW,258,0.0,4.0,94,0.13,,,0.17,meteohub,2013-04-01 08:12:00,
2013-04-01 01:17:00,54.1,52.7,30.11,North,359,0.0,2.0,95,0.14,,,0.18,meteohub,2013-04-01 08:17:00,
2013-04-01 01:22:00,54.1,52.7,30.11,West,259,2.0,3.0,95,0.15,,,0.19,meteohub,2013-04-01 08:22:00,
2013-04-01 01:27:00,54.0,52.5,30.11,WSW,258,1.0,3.0,95,0.15,,,0.19,meteohub,2013-04-01 08:27:00,
2013-04-01 01:33:00,54.1,52.7,30.11,WSW,258,0.0,3.0,95,0.15,,,0.19,meteohub,2013-04-01 08:33:00,
2013-04-01 01:38:00,54.1,52.7,30.11,North,359,0.0,3.0,95,0.15,,,0.19,meteohub,2013-04-01 08:38:00,
2013-04-01 01:43:00,54.1,52.7,30.11,West,259,0.0,2.0,95,0.15,,,0.19,meteohub,2013-04-01 08:43:00,
2013-04-01 01:48:00,54.1,52.7,30.11,WSW,258,0.0,1.0,95,0.16,,,0.20,meteohub,2013-04-01 08:48:00,
2013-04-01 01:54:00,54.1,52.7,30.11,North,359,2.0,2.0,95,0.12,,,0.20,meteohub,2013-04-01 08:54:00,
2013-04-01 01:59:00,54.1,52.7,30.11,WSW,240,1.0,2.0,95,0.08,,,0.20,meteohub,2013-04-01 08:59:00,
2013-04-01 02:04:00,54.1,52.7,30.12,North,359,0.0,3.0,95,0.04,,,0.20,meteohub,2013-04-01 09:04:00,
2013-04-01 02:09:00,54.1,52.7,30.12,WSW,239,0.0,3.0,95,0.03,,,0.20,meteohub,2013-04-01 09:09:00,
2013-04-01 02:14:00,54.1,52.7,30.12,WSW,239,0.0,3.0,95,0.03,,,0.20,meteohub,2013-04-01 09:14:00,
2013-04-01 02:20:00,54.1,52.7,30.12,WSW,237,3.0,3.0,95,0.02,,,0.20,meteohub,2013-04-01 09:20:00,
2013-04-01 02:25:00,54.1,53.1,30.12,SW,216,4.0,4.0,96,0.01,,,0.20,meteohub,2013-04-01 09:25:00,
2013-04-01 02:30:00,54.1,52.7,30.12,SSW,193,0.0,4.0,95,0.01,,,0.20,meteohub,2013-04-01 09:30:00,
2013-04-01 02:35:00,54.1,53.1,30.12,SSW,196,2.0,4.0,96,0.01,,,0.20,meteohub,2013-04-01 09:35:00,
2013-04-01 02:40:00,54.1,53.1,30.12,SSW,195,0.0,4.0,96,0.00,,,0.20,meteohub,2013-04-01 09:40:00,
2013-04-01 02:45:00,54.3,53.2,30.12,North,359,0.0,3.0,96,0.00,,,0.20,meteohub,2013-04-01 09:45:00,
2013-04-01 02:51:00,54.1,53.1,30.12,SSW,197,0.0,3.0,96,0.00,,,0.20,meteohub,2013-04-01 09:51:00,
2013-04-01 02:56:00,54.1,53.1,30.12,SSW,195,0.0,3.0,96,0.00,,,0.20,meteohub,2013-04-01 09:56:00,
2013-04-01 03:01:00,54.1,53.1,30.12,SSW,195,0.0,3.0,96,0.00,,,0.20,meteohub,2013-04-01 10:01:00,
2013-04-01 03:07:00,54.1,53.1,30.12,SSW,194,0.0,3.0,96,0.00,,,0.20,meteohub,2013-04-01 10:07:00,
2013-04-01 03:12:00,54.1,53.1,30.12,SSW,196,0.0,3.0,96,0.00,,,0.20,meteohub,2013-04-01 10:12:00,
2013-04-01 03:17:00,54.0,52.9,30.12,SSW,196,0.0,3.0,96,0.00,,,0.20,meteohub,2013-04-01 10:17:00,
2013-04-01 03:22:00,54.1,53.1,30.12,SSW,195,1.0,3.0,96,0.00,,,0.20,meteohub,2013-04-01 10:22:00,
2013-04-01 03:27:00,54.0,52.9,30.12,SSW,194,0.0,3.0,96,0.00,,,0.20,meteohub,2013-04-01 10:27:00,
2013-04-01 03:32:00,54.0,52.9,30.11,North,359,0.0,3.0,96,0.00,,,0.20,meteohub,2013-04-01 10:32:00,
2013-04-01 03:38:00,54.0,52.9,30.11,SSW,193,0.0,3.0,96,0.00,,,0.20,meteohub,2013-04-01 10:38:00,
2013-04-01 03:43:00,54.0,52.9,30.12,SSW,195,0.0,2.0,96,0.00,,,0.20,meteohub,2013-04-01 10:43:00,
2013-04-01 03:48:00,54.0,52.9,30.11,SSW,194,0.0,2.0,96,0.00,,,0.20,meteohub,2013-04-01 10:48:00,
2013-04-01 03:53:00,54.0,52.9,30.11,North,359,0.0,2.0,96,0.00,,,0.20,meteohub,2013-04-01 10:53:00,
2013-04-01 03:58:00,54.0,52.9,30.11,SSW,193,1.0,2.0,96,0.00,,,0.20,meteohub,2013-04-01 10:58:00,
2013-04-01 04:03:00,54.0,52.9,30.11,SSW,195,1.0,2.0,96,0.00,,,0.20,meteohub,2013-04-01 11:03:00,
2013-04-01 04:09:00,54.0,52.9,30.12,SSW,196,0.0,2.0,96,0.00,,,0.20,meteohub,2013-04-01 11:09:00,
2013-04-01 04:14:00,54.0,52.9,30.12,SSW,194,1.0,2.0,96,0.00,,,0.20,meteohub,2013-04-01 11:14:00,
2013-04-01 04:19:00,54.0,52.9,30.12,SSW,193,0.0,2.0,96,0.00,,,0.20,meteohub,2013-04-01 11:19:00,
2013-04-01 04:24:00,54.1,53.1,30.12,SSW,195,0.0,2.0,96,0.00,,,0.20,meteohub,2013-04-01 11:24:00,
2013-04-01 04:30:00,54.1,53.1,30.12,SSW,196,0.0,1.0,96,0.00,,,0.20,meteohub,2013-04-01 11:30:00,
2013-04-01 04:35:00,54.1,53.1,30.12,North,359,0.0,0.0,96,0.00,,,0.20,meteohub,2013-04-01 11:35:00,
2013-04-01 04:40:00,54.1,53.1,30.12,SSW,195,0.0,0.0,96,0.00,,,0.20,meteohub,2013-04-01 11:40:00,
2013-04-01 04:45:00,54.1,53.1,30.12,SSW,197,0.0,1.0,96,0.00,,,0.20,meteohub,2013-04-01 11:45:00,
2013-04-01 04:50:00,54.1,53.1,30.12,North,359,0.0,1.0,96,0.00,,,0.20,meteohub,2013-04-01 11:50:00,
2013-04-01 04:55:00,54.1,53.1,30.12,SSW,193,0.0,0.0,96,0.00,,,0.20,meteohub,2013-04-01 11:55:00,
2013-04-01 05:00:00,54.1,53.1,30.12,SSW,197,0.0,3.0,96,0.00,,,0.20,meteohub,2013-04-01 12:00:00,
2013-04-01 05:06:00,54.1,53.1,30.12,SSW,194,0.0,3.0,96,0.00,,,0.20,meteohub,2013-04-01 12:06:00,
2013-04-01 05:11:00,54.1,53.1,30.12,SSW,195,0.0,3.0,96,0.00,,,0.20,meteohub,2013-04-01 12:11:00,
2013-04-01 05:16:00,54.1,53.1,30.12,SSW,197,0.0,0.0,96,0.00,,,0.20,meteohub,2013-04-01 12:16:00,
2013-04-01 05:21:00,54.0,52.5,30.12,SSW,195,0.0,0.0,95,0.00,,,0.20,meteohub,2013-04-01 12:21:00,
2013-04-01 05:26:00,54.1,53.1,30.12,WNW,291,4.0,4.0,96,0.00,,,0.20,meteohub,2013-04-01 12:26:00,
2013-04-01 05:31:00,54.0,52.9,30.12,WNW,292,0.0,4.0,96,0.00,,,0.20,meteohub,2013-04-01 12:31:00,
2013-04-01 05:37:00,54.0,52.9,30.12,North,359,3.0,4.0,96,0.00,,,0.20,meteohub,2013-04-01 12:37:00,
2013-04-01 05:42:00,54.1,53.1,30.13,North,359,3.0,4.0,96,0.00,,,0.20,meteohub,2013-04-01 12:42:00,
2013-04-01 05:47:00,54.0,52.9,30.13,North,359,1.0,4.0,96,0.00,,,0.20,meteohub,2013-04-01 12:47:00,
2013-04-01 05:52:00,54.0,52.5,30.12,WNW,297,1.0,4.0,95,0.00,,,0.20,meteohub,2013-04-01 12:52:00,
2013-04-01 05:58:00,54.0,52.5,30.13,WNW,299,0.0,3.0,95,0.00,,,0.20,meteohub,2013-04-01 12:58:00,
2013-04-01 06:03:00,53.8,52.3,30.13,WNW,299,0.0,3.0,95,0.00,,,0.20,meteohub,2013-04-01 13:03:00,
2013-04-01 06:08:00,53.8,52.3,30.13,North,359,0.0,2.0,95,0.00,,,0.20,meteohub,2013-04-01 13:08:00,
2013-04-01 06:13:00,53.8,52.3,30.13,WNW,298,0.0,0.0,95,0.00,,,0.20,meteohub,2013-04-01 13:13:00,
2013-04-01 06:18:00,54.0,52.5,30.13,WNW,298,0.0,0.0,95,0.00,,,0.20,meteohub,2013-04-01 13:18:00,
2013-04-01 06:23:00,53.8,52.3,30.13,WNW,297,0.0,1.0,95,0.00,,,0.20,meteohub,2013-04-01 13:23:00,
2013-04-01 06:28:00,53.8,52.3,30.14,WNW,297,0.0,2.0,95,0.00,,,0.20,meteohub,2013-04-01 13:28:00,
2013-04-01 06:33:00,53.8,52.3,30.14,North,359,0.0,2.0,95,0.00,,,0.20,meteohub,2013-04-01 13:33:00,
2013-04-01 06:38:00,54.0,52.5,30.14,WNW,298,0.0,1.0,95,0.00,,,0.20,meteohub,2013-04-01 13:38:00,
2013-04-01 06:44:00,53.8,52.3,30.14,WNW,297,0.0,1.0,95,0.00,,,0.20,meteohub,2013-04-01 13:44:00,
2013-04-01 06:49:00,54.0,52.5,30.14,WNW,299,0.0,0.0,95,0.01,,,0.21,meteohub,2013-04-01 13:49:00,
2013-04-01 06:54:00,54.0,52.9,30.14,WNW,297,1.0,2.0,96,0.03,,,0.23,meteohub,2013-04-01 13:54:00,
2013-04-01 06:59:00,54.0,52.5,30.14,SW,220,2.0,2.0,95,0.05,,,0.25,meteohub,2013-04-01 13:59:00,
2013-04-01 07:05:00,53.8,52.3,30.15,SW,222,2.0,4.0,95,0.06,,,0.28,meteohub,2013-04-01 14:05:00,
2013-04-01 07:10:00,53.6,52.2,30.15,SW,217,1.0,4.0,95,0.10,,,0.30,meteohub,2013-04-01 14:10:00,
2013-04-01 07:16:00,53.4,52.0,30.15,SW,218,0.0,3.0,95,0.11,,,0.31,meteohub,2013-04-01 14:16:00,
2013-04-01 07:21:00,53.4,52.3,30.15,SW,219,0.0,3.0,96,0.12,,,0.32,meteohub,2013-04-01 14:21:00,
2013-04-01 07:26:00,53.4,52.3,30.15,SW,218,0.0,2.0,96,0.13,,,0.33,meteohub,2013-04-01 14:26:00,
2013-04-01 07:32:00,53.6,52.5,30.15,SW,222,0.0,2.0,96,0.13,,,0.33,meteohub,2013-04-01 14:32:00,
2013-04-01 07:37:00,53.6,52.5,30.15,SW,222,0.0,2.0,96,0.14,,,0.34,meteohub,2013-04-01 14:37:00,
2013-04-01 07:42:00,53.8,52.7,30.16,SW,220,0.0,1.0,96,0.16,,,0.36,meteohub,2013-04-01 14:42:00,
2013-04-01 07:47:00,53.8,52.7,30.16,SW,219,0.0,1.0,96,0.15,,,0.37,meteohub,2013-04-01 14:47:00,
2013-04-01 07:52:00,54.0,52.9,30.16,North,359,0.0,1.0,96,0.13,,,0.37,meteohub,2013-04-01 14:52:00,
2013-04-01 07:57:00,54.0,52.9,30.17,North,359,0.0,1.0,96,0.13,,,0.38,meteohub,2013-04-01 14:57:00,
2013-04-01 08:02:00,54.0,52.9,30.16,SW,221,0.0,1.0,96,0.11,,,0.38,meteohub,2013-04-01 15:02:00,
2013-04-01 08:08:00,54.0,52.9,30.17,SW,222,0.0,1.0,96,0.09,,,0.38,meteohub,2013-04-01 15:08:00,
2013-04-01 08:13:00,54.0,52.9,30.17,SW,222,0.0,1.0,96,0.09,,,0.39,meteohub,2013-04-01 15:13:00,
2013-04-01 08:18:00,54.1,53.1,30.17,SW,216,0.0,1.0,96,0.08,,,0.39,meteohub,2013-04-01 15:18:00,
2013-04-01 08:23:00,54.1,53.1,30.17,SW,222,0.0,1.0,96,0.07,,,0.39,meteohub,2013-04-01 15:23:00,
2013-04-01 08:28:00,54.1,53.1,30.17,SW,220,0.0,0.0,96,0.06,,,0.39,meteohub,2013-04-01 15:28:00,
2013-04-01 08:33:00,54.3,53.2,30.17,SW,220,2.0,2.0,96,0.05,,,0.39,meteohub,2013-04-01 15:33:00,
2013-04-01 08:38:00,54.3,53.2,30.17,North,359,0.0,3.0,96,0.04,,,0.39,meteohub,2013-04-01 15:38:00,
2013-04-01 08:43:00,54.3,53.2,30.17,SW,220,0.0,3.0,96,0.03,,,0.39,meteohub,2013-04-01 15:43:00,
2013-04-01 08:49:00,54.3,53.2,30.17,SW,220,0.0,3.0,96,0.03,,,0.40,meteohub,2013-04-01 15:49:00,
2013-04-01 08:54:00,54.3,53.2,30.17,SW,218,0.0,1.0,96,0.02,,,0.40,meteohub,2013-04-01 15:54:00,
2013-04-01 08:59:00,54.3,53.2,30.17,SW,220,2.0,2.0,96,0.02,,,0.40,meteohub,2013-04-01 15:59:00,
2013-04-01 09:05:00,54.1,53.1,30.17,SW,220,0.0,3.0,96,0.03,,,0.41,meteohub,2013-04-01 16:05:00,
2013-04-01 09:10:00,54.1,53.1,30.17,SW,218,3.0,4.0,96,0.03,,,0.42,meteohub,2013-04-01 16:10:00,
2013-04-01 09:15:00,54.3,53.2,30.17,SW,220,2.0,4.0,96,0.03,,,0.42,meteohub,2013-04-01 16:15:00,
2013-04-01 09:20:00,54.3,53.2,30.18,SW,220,4.0,4.0,96,0.03,,,0.42,meteohub,2013-04-01 16:20:00,
2013-04-01 09:26:00,54.5,53.4,30.18,SW,221,1.0,5.0,96,0.03,,,0.42,meteohub,2013-04-01 16:26:00,
2013-04-01 09:31:00,54.5,53.4,30.18,SW,224,3.0,7.0,96,0.03,,,0.42,meteohub,2013-04-01 16:31:00,
2013-04-01 09:36:00,54.3,53.2,30.18,SSW,208,4.0,7.0,96,0.03,,,0.42,meteohub,2013-04-01 16:36:00,
2013-04-01 09:41:00,54.3,53.2,30.18,SW,224,3.0,8.0,96,0.05,,,0.44,meteohub,2013-04-01 16:41:00,
2013-04-01 09:46:00,54.3,53.2,30.19,SW,235,4.0,8.0,96,0.04,,,0.44,meteohub,2013-04-01 16:46:00,
2013-04-01 09:52:00,54.3,53.2,30.19,SW,235,3.0,7.0,96,0.04,,,0.44,meteohub,2013-04-01 16:52:00,
2013-04-01 09:57:00,54.3,53.2,30.19,WSW,237,2.0,6.0,96,0.04,,,0.44,meteohub,2013-04-01 16:57:00,
2013-04-01 10:03:00,54.3,53.2,30.19,SW,215,4.0,5.0,96,0.03,,,0.44,meteohub,2013-04-01 17:03:00,
2013-04-01 10:08:00,54.3,53.2,30.19,SW,220,4.0,5.0,96,0.02,,,0.44,meteohub,2013-04-01 17:08:00,
2013-04-01 10:13:00,54.7,53.8,30.19,South,190,2.0,6.0,97,0.03,,,0.45,meteohub,2013-04-01 17:13:00,
2013-04-01 10:19:00,54.7,53.6,30.19,SSW,196,5.0,6.0,96,0.03,,,0.45,meteohub,2013-04-01 17:19:00,
2013-04-01 10:24:00,54.7,53.6,30.19,South,182,6.0,6.0,96,0.03,,,0.45,meteohub,2013-04-01 17:24:00,
2013-04-01 10:29:00,54.7,53.6,30.20,SSW,197,4.0,6.0,96,0.03,,,0.45,meteohub,2013-04-01 17:29:00,
2013-04-01 10:34:00,54.7,53.6,30.20,SSW,195,6.0,7.0,96,0.03,,,0.45,meteohub,2013-04-01 17:34:00,
2013-04-01 10:39:00,54.7,53.6,30.20,South,184,2.0,7.0,96,0.03,,,0.45,meteohub,2013-04-01 17:39:00,
2013-04-01 10:44:00,54.7,53.6,30.20,SSW,199,6.0,7.0,96,0.01,,,0.45,meteohub,2013-04-01 17:44:00,
2013-04-01 10:50:00,54.9,53.8,30.20,SSW,199,4.0,7.0,96,0.01,,,0.45,meteohub,2013-04-01 17:50:00,
2013-04-01 10:55:00,54.9,53.8,30.20,SSW,195,5.0,7.0,96,0.01,,,0.45,meteohub,2013-04-01 17:55:00,
2013-04-01 11:00:00,54.7,53.6,30.20,South,189,5.0,7.0,96,0.01,,,0.45,meteohub,2013-04-01 18:00:00,
2013-04-01 11:05:00,54.9,53.8,30.20,SSW,198,5.0,7.0,96,0.01,,,0.45,meteohub,2013-04-01 18:05:00,
2013-04-01 11:11:00,55.0,53.6,30.21,SSW,193,7.0,7.0,95,0.00,,,0.45,meteohub,2013-04-01 18:11:00,
2013-04-01 11:16:00,55.4,54.0,30.21,South,178,5.0,8.0,95,0.00,,,0.45,meteohub,2013-04-01 18:16:00,
2013-04-01 11:21:00,56.1,54.5,30.21,SSW,202,6.0,8.0,94,0.00,,,0.45,meteohub,2013-04-01 18:21:00,
2013-04-01 11:26:00,56.7,55.0,30.21,South,183,5.0,8.0,94,0.00,,,0.45,meteohub,2013-04-01 18:26:00,
2013-04-01 11:32:00,56.7,54.1,30.21,South,179,6.0,9.0,91,0.00,,,0.45,meteohub,2013-04-01 18:32:00,
2013-04-01 11:37:00,57.0,53.8,30.21,SW,235,6.0,11.0,89,0.00,,,0.45,meteohub,2013-04-01 18:37:00,
2013-04-01 11:42:00,57.4,53.6,30.20,SW,222,11.0,12.0,87,0.00,,,0.45,meteohub,2013-04-01 18:42:00,
2013-04-01 11:48:00,57.6,53.1,30.20,SW,236,11.0,12.0,85,0.00,,,0.45,meteohub,2013-04-01 18:48:00,
2013-04-01 11:53:00,57.4,52.9,30.20,SW,236,11.0,12.0,85,0.00,,,0.45,meteohub,2013-04-01 18:53:00,
2013-04-01 11:58:00,57.7,53.2,30.20,WSW,253,9.0,13.0,85,0.00,,,0.45,meteohub,2013-04-01 18:58:00,
2013-04-01 12:03:00,58.1,52.9,30.20,SW,222,6.0,13.0,83,0.00,,,0.45,meteohub,2013-04-01 19:03:00,
2013-04-01 12:08:00,58.5,53.6,30.20,WSW,248,14.0,14.0,84,0.00,,,0.45,meteohub,2013-04-01 19:08:00,
2013-04-01 12:14:00,57.7,52.0,30.20,SW,228,9.0,13.0,81,0.00,,,0.45,meteohub,2013-04-01 19:14:00,
2013-04-01 12:19:00,57.9,52.5,30.20,WSW,245,11.0,14.0,82,0.00,,,0.45,meteohub,2013-04-01 19:19:00,
2013-04-01 12:24:00,58.6,53.4,30.20,WSW,241,9.0,14.0,83,0.00,,,0.45,meteohub,2013-04-01 19:24:00,
2013-04-01 12:29:00,58.3,52.5,30.20,SW,217,9.0,13.0,81,0.00,,,0.45,meteohub,2013-04-01 19:29:00,
2013-04-01 12:35:00,58.3,52.9,30.20,SSW,210,5.0,13.0,82,0.00,,,0.45,meteohub,2013-04-01 19:35:00,
2013-04-01 12:40:00,58.6,52.5,30.20,WSW,239,11.0,13.0,80,0.00,,,0.45,meteohub,2013-04-01 19:40:00,
2013-04-01 12:45:00,58.6,52.2,30.20,SW,226,7.0,12.0,79,0.00,,,0.45,meteohub,2013-04-01 19:45:00,
2013-04-01 12:50:00,59.2,52.3,30.20,SW,230,6.0,12.0,78,0.00,,,0.45,meteohub,2013-04-01 19:50:00,
2013-04-01 12:55:00,59.4,52.9,30.20,SSW,213,6.0,12.0,79,0.00,,,0.45,meteohub,2013-04-01 19:55:00,
2013-04-01 13:01:00,59.9,52.7,30.20,SW,233,8.0,10.0,77,0.00,,,0.45,meteohub,2013-04-01 20:01:00,
2013-04-01 13:07:00,59.7,52.5,30.20,SW,232,6.0,11.0,77,0.00,,,0.45,meteohub,2013-04-01 20:07:00,
2013-04-01 13:12:00,59.9,52.3,30.20,WSW,240,8.0,11.0,76,0.00,,,0.45,meteohub,2013-04-01 20:12:00,
2013-04-01 13:17:00,60.1,52.2,30.20,WSW,251,6.0,11.0,75,0.00,,,0.45,meteohub,2013-04-01 20:17:00,
2013-04-01 13:22:00,60.3,52.3,30.20,SSW,210,6.0,12.0,75,0.00,,,0.45,meteohub,2013-04-01 20:22:00,
2013-04-01 13:28:00,60.1,52.2,30.20,SSW,206,7.0,12.0,75,0.00,,,0.45,meteohub,2013-04-01 20:28:00,
2013-04-01 13:33:00,60.4,52.9,30.20,SSW,213,4.0,12.0,76,0.00,,,0.45,meteohub,2013-04-01 20:33:00,
2013-04-01 13:38:00,60.6,53.1,30.20,SSW,213,11.0,12.0,76,0.00,,,0.45,meteohub,2013-04-01 20:38:00,
2013-04-01 13:43:00,60.6,53.1,30.20,SW,235,8.0,12.0,76,0.00,,,0.45,meteohub,2013-04-01 20:43:00,
2013-04-01 13:48:00,60.4,52.5,30.19,SW,235,10.0,12.0,75,0.00,,,0.45,meteohub,2013-04-01 20:48:00,
2013-04-01 13:54:00,60.4,53.2,30.19,SW,223,6.0,13.0,77,0.00,,,0.45,meteohub,2013-04-01 20:54:00,
2013-04-01 13:59:00,60.3,52.3,30.19,SSW,203,9.0,13.0,75,0.00,,,0.45,meteohub,2013-04-01 20:59:00,
2013-04-01 14:04:00,60.3,52.7,30.19,SW,226,8.0,13.0,76,0.00,,,0.45,meteohub,2013-04-01 21:04:00,
2013-04-01 14:09:00,61.0,52.7,30.19,WSW,249,6.0,13.0,74,0.00,,,0.45,meteohub,2013-04-01 21:09:00,
2013-04-01 14:14:00,61.3,52.2,30.19,WSW,246,13.0,13.0,72,0.00,,,0.45,meteohub,2013-04-01 21:14:00,
2013-04-01 14:20:00,60.8,52.5,30.19,South,183,8.0,13.0,74,0.00,,,0.45,meteohub,2013-04-01 21:20:00,
2013-04-01 14:25:00,60.6,52.0,30.19,SSW,193,7.0,14.0,73,0.00,,,0.45,meteohub,2013-04-01 21:25:00,
2013-04-01 14:30:00,60.8,52.2,30.19,SW,220,10.0,13.0,73,0.00,,,0.45,meteohub,2013-04-01 21:30:00,
2013-04-01 14:35:00,60.8,52.2,30.19,SSW,211,7.0,14.0,73,0.00,,,0.45,meteohub,2013-04-01 21:35:00,
2013-04-01 14:40:00,61.0,52.0,30.19,SSW,204,10.0,14.0,72,0.00,,,0.45,meteohub,2013-04-01 21:40:00,
2013-04-01 14:46:00,61.3,52.2,30.18,SW,236,11.0,14.0,72,0.00,,,0.45,meteohub,2013-04-01 21:46:00,
2013-04-01 14:51:00,60.8,52.2,30.18,WSW,237,11.0,13.0,73,0.00,,,0.45,meteohub,2013-04-01 21:51:00,
2013-04-01 14:56:00,60.6,51.6,30.18,WSW,256,6.0,14.0,72,0.00,,,0.45,meteohub,2013-04-01 21:56:00,
2013-04-01 15:01:00,61.0,53.1,30.18,WSW,239,14.0,14.0,75,0.00,,,0.45,meteohub,2013-04-01 22:01:00,
2013-04-01 15:06:00,61.0,52.3,30.18,SSW,204,7.0,16.0,73,0.00,,,0.45,meteohub,2013-04-01 22:06:00,
2013-04-01 15:11:00,61.2,52.0,30.18,SW,226,8.0,16.0,72,0.00,,,0.45,meteohub,2013-04-01 22:11:00,
2013-04-01 15:16:00,61.0,52.0,30.18,SSW,195,5.0,16.0,72,0.00,,,0.45,meteohub,2013-04-01 22:16:00,
2013-04-01 15:21:00,61.2,52.0,30.18,SW,214,9.0,13.0,72,0.00,,,0.45,meteohub,2013-04-01 22:21:00,
2013-04-01 15:27:00,61.3,52.2,30.18,SW,235,6.0,13.0,72,0.00,,,0.45,meteohub,2013-04-01 22:27:00,
2013-04-01 15:32:00,62.1,52.2,30.17,SW,230,10.0,13.0,70,0.00,,,0.45,meteohub,2013-04-01 22:32:00,
2013-04-01 15:37:00,61.3,51.8,30.17,SW,233,7.0,13.0,71,0.00,,,0.45,meteohub,2013-04-01 22:37:00,
2013-04-01 15:42:00,61.7,51.8,30.17,WSW,244,7.0,13.0,70,0.00,,,0.45,meteohub,2013-04-01 22:42:00,
2013-04-01 15:47:00,61.3,51.4,30.17,WSW,241,14.0,14.0,70,0.00,,,0.45,meteohub,2013-04-01 22:47:00,
2013-04-01 15:53:00,60.8,51.8,30.17,WSW,243,10.0,15.0,72,0.00,,,0.45,meteohub,2013-04-01 22:53:00,
2013-04-01 15:58:00,61.2,52.0,30.17,South,171,7.0,15.0,72,0.00,,,0.45,meteohub,2013-04-01 22:58:00,
2013-04-01 16:03:00,60.8,53.2,30.17,SSE,164,7.0,15.0,76,0.00,,,0.45,meteohub,2013-04-01 23:03:00,
2013-04-01 16:08:00,61.0,53.1,30.17,SSW,194,11.0,12.0,75,0.00,,,0.45,meteohub,2013-04-01 23:08:00,
2013-04-01 16:13:00,60.4,52.9,30.17,SSW,213,10.0,12.0,76,0.00,,,0.45,meteohub,2013-04-01 23:13:00,
2013-04-01 16:18:00,60.3,52.7,30.17,SSW,201,7.0,12.0,76,0.00,,,0.45,meteohub,2013-04-01 23:18:00,
2013-04-01 16:24:00,59.7,52.5,30.17,South,172,6.0,12.0,77,0.00,,,0.45,meteohub,2013-04-01 23:24:00,
2013-04-01 16:29:00,59.5,53.1,30.17,South,177,9.0,12.0,79,0.00,,,0.45,meteohub,2013-04-01 23:29:00,
2013-04-01 16:34:00,59.4,52.5,30.17,South,177,7.0,12.0,78,0.00,,,0.45,meteohub,2013-04-01 23:34:00,
2013-04-01 16:39:00,59.7,52.2,30.17,South,183,10.0,12.0,76,0.00,,,0.45,meteohub,2013-04-01 23:39:00,
2013-04-01 16:44:00,59.5,52.3,30.17,South,174,9.0,12.0,77,0.00,,,0.45,meteohub,2013-04-01 23:44:00,
2013-04-01 16:49:00,59.5,52.3,30.17,South,191,8.0,12.0,77,0.00,,,0.45,meteohub,2013-04-01 23:49:00,
2013-04-01 16:55:00,59.5,53.1,30.17,South,191,9.0,12.0,79,0.00,,,0.45,meteohub,2013-04-01 23:55:00,
2013-04-01 17:00:00,59.2,53.1,30.17,South,176,6.0,11.0,80,0.00,,,0.45,meteohub,2013-04-02 00:00:00,
2013-04-01 17:05:00,58.6,52.5,30.17,SSE,168,6.0,10.0,80,0.00,,,0.00,meteohub,2013-04-02 00:05:00,
2013-04-01 17:10:00,59.0,52.9,30.17,South,183,4.0,10.0,80,0.00,,,0.00,meteohub,2013-04-02 00:10:00,
2013-04-01 17:15:00,59.4,52.9,30.17,South,181,5.0,9.0,79,0.00,,,0.00,meteohub,2013-04-02 00:15:00,
2013-04-01 17:21:00,59.4,52.5,30.17,South,187,4.0,8.0,78,0.00,,,0.00,meteohub,2013-04-02 00:21:00,
2013-04-01 17:26:00,59.4,52.9,30.17,SSE,168,6.0,10.0,79,0.00,,,0.00,meteohub,2013-04-02 00:26:00,
2013-04-01 17:31:00,59.5,53.1,30.17,SW,218,5.0,10.0,79,0.00,,,0.00,meteohub,2013-04-02 00:31:00,
2013-04-01 17:37:00,60.6,53.1,30.17,South,178,8.0,10.0,76,0.00,,,0.00,meteohub,2013-04-02 00:37:00,
2013-04-01 17:42:00,60.4,51.8,30.17,SW,219,8.0,9.0,73,0.00,,,0.00,meteohub,2013-04-02 00:42:00,
2013-04-01 17:47:00,60.3,51.6,30.17,SW,217,9.0,9.0,73,0.00,,,0.00,meteohub,2013-04-02 00:47:00,
2013-04-01 17:52:00,60.3,51.6,30.17,SW,232,9.0,10.0,73,0.00,,,0.00,meteohub,2013-04-02 00:52:00,
2013-04-01 17:58:00,60.4,51.8,30.17,SW,228,8.0,10.0,73,0.00,,,0.00,meteohub,2013-04-02 00:58:00,
2013-04-01 18:03:00,60.4,51.4,30.17,SW,230,8.0,11.0,72,0.00,,,0.00,meteohub,2013-04-02 01:03:00,
2013-04-01 18:08:00,61.0,51.1,30.17,WSW,242,7.0,12.0,70,0.00,,,0.00,meteohub,2013-04-02 01:08:00,
2013-04-01 18:14:00,60.8,50.5,30.17,SW,226,9.0,12.0,69,0.00,,,0.00,meteohub,2013-04-02 01:14:00,
2013-04-01 18:19:00,60.8,49.8,30.17,SW,232,6.0,12.0,67,0.00,,,0.00,meteohub,2013-04-02 01:19:00,
2013-04-01 18:24:00,60.4,49.5,30.17,WSW,248,8.0,12.0,67,0.00,,,0.00,meteohub,2013-04-02 01:24:00,
2013-04-01 18:29:00,60.4,49.5,30.17,WSW,237,8.0,14.0,67,0.00,,,0.00,meteohub,2013-04-02 01:29:00,
2013-04-01 18:34:00,60.1,49.1,30.17,WSW,241,9.0,15.0,67,0.00,,,0.00,meteohub,2013-04-02 01:34:00,
2013-04-01 18:40:00,59.7,49.1,30.18,West,266,13.0,15.0,68,0.00,,,0.00,meteohub,2013-04-02 01:40:00,
2013-04-01 18:45:00,59.4,49.6,30.18,SW,231,6.0,15.0,70,0.00,,,0.00,meteohub,2013-04-02 01:45:00,
2013-04-01 18:50:00,59.0,49.3,30.18,WSW,258,8.0,15.0,70,0.00,,,0.00,meteohub,2013-04-02 01:50:00,
2013-04-01 18:56:00,59.0,49.3,30.18,SW,222,9.0,15.0,70,0.00,,,0.00,meteohub,2013-04-02 01:56:00,
2013-04-01 19:01:00,59.2,49.1,30.18,WSW,249,8.0,15.0,69,0.00,,,0.00,meteohub,2013-04-02 02:01:00,
2013-04-01 19:07:00,59.0,48.9,30.18,WSW,253,9.0,15.0,69,0.00,,,0.00,meteohub,2013-04-02 02:07:00,
2013-04-01 19:12:00,58.8,48.7,30.18,SW,224,10.0,14.0,69,0.00,,,0.00,meteohub,2013-04-02 02:12:00,
2013-04-01 19:17:00,58.6,48.9,30.18,WSW,237,8.0,16.0,70,0.00,,,0.00,meteohub,2013-04-02 02:17:00,
2013-04-01 19:22:00,58.5,48.7,30.18,WSW,238,7.0,16.0,70,0.00,,,0.00,meteohub,2013-04-02 02:22:00,
2013-04-01 19:28:00,58.3,48.9,30.18,WSW,251,5.0,16.0,71,0.00,,,0.00,meteohub,2013-04-02 02:28:00,
2013-04-01 19:33:00,58.5,49.1,30.18,WSW,247,4.0,11.0,71,0.00,,,0.00,meteohub,2013-04-02 02:33:00,
2013-04-01 19:38:00,58.3,48.9,30.18,WSW,249,6.0,11.0,71,0.00,,,0.00,meteohub,2013-04-02 02:38:00,
2013-04-01 19:43:00,58.3,48.9,30.18,WSW,245,5.0,9.0,71,0.00,,,0.00,meteohub,2013-04-02 02:43:00,
2013-04-01 19:49:00,57.9,48.9,30.18,West,261,0.0,9.0,72,0.00,,,0.00,meteohub,2013-04-02 02:49:00,
2013-04-01 19:54:00,57.9,48.9,30.18,West,262,2.0,9.0,72,0.00,,,0.00,meteohub,2013-04-02 02:54:00,
2013-04-01 19:59:00,57.7,49.1,30.18,WSW,256,5.0,9.0,73,0.00,,,0.00,meteohub,2013-04-02 02:59:00,
2013-04-01 20:04:00,57.6,48.6,30.18,WSW,251,6.0,7.0,72,0.00,,,0.00,meteohub,2013-04-02 03:04:00,
2013-04-01 20:09:00,57.6,48.6,30.19,West,260,0.0,9.0,72,0.00,,,0.00,meteohub,2013-04-02 03:09:00,
2013-04-01 20:14:00,57.4,48.7,30.19,West,266,2.0,9.0,73,0.00,,,0.00,meteohub,2013-04-02 03:14:00,
2013-04-01 20:20:00,57.4,49.1,30.19,West,266,1.0,7.0,74,0.00,,,0.00,meteohub,2013-04-02 03:20:00,
2013-04-01 20:25:00,57.4,49.1,30.19,West,266,1.0,5.0,74,0.00,,,0.00,meteohub,2013-04-02 03:25:00,
2013-04-01 20:30:00,57.4,49.1,30.19,West,266,0.0,3.0,74,0.00,,,0.00,meteohub,2013-04-02 03:30:00,
2013-04-01 20:35:00,57.0,48.7,30.19,West,266,4.0,4.0,74,0.00,,,0.00,meteohub,2013-04-02 03:35:00,
2013-04-01 20:40:00,56.8,49.3,30.20,West,264,5.0,9.0,76,0.00,,,0.00,meteohub,2013-04-02 03:40:00,
2013-04-01 20:46:00,56.8,49.3,30.20,WSW,249,6.0,9.0,76,0.00,,,0.00,meteohub,2013-04-02 03:46:00,
2013-04-01 20:52:00,56.7,49.5,30.20,West,261,2.0,9.0,77,0.00,,,0.00,meteohub,2013-04-02 03:52:00,
2013-04-01 20:57:00,56.5,49.6,30.21,West,267,3.0,8.0,78,0.00,,,0.00,meteohub,2013-04-02 03:57:00,
2013-04-01 21:00:00,56.5,50.0,30.21,West,271,3.0,7.0,79,0.00,,,0.00,meteohub,2013-04-02 04:00:00,
2013-04-01 21:01:00,56.5,50.0,30.21,West,281,5.0,7.0,79,0.00,,,0.00,meteohub,2013-04-02 04:01:00,
2013-04-01 21:03:00,56.3,49.8,30.21,WNW,282,3.0,7.0,79,0.00,,,0.00,meteohub,2013-04-02 04:03:00,
2013-04-01 21:09:00,56.3,49.8,30.21,West,281,1.0,7.0,79,0.00,,,0.00,meteohub,2013-04-02 04:09:00,
2013-04-01 21:14:00,56.1,50.0,30.21,WNW,282,4.0,7.0,80,0.00,,,0.00,meteohub,2013-04-02 04:14:00,
2013-04-01 21:19:00,55.9,49.8,30.20,WNW,282,2.0,6.0,80,0.00,,,0.00,meteohub,2013-04-02 04:19:00,
2013-04-01 21:24:00,55.9,49.8,30.20,West,281,1.0,5.0,80,0.00,,,0.00,meteohub,2013-04-02 04:24:00,
2013-04-01 21:29:00,55.9,49.8,30.20,West,281,3.0,5.0,80,0.00,,,0.00,meteohub,2013-04-02 04:29:00,
2013-04-01 21:35:00,55.9,49.8,30.20,West,281,0.0,4.0,80,0.00,,,0.00,meteohub,2013-04-02 04:35:00,
2013-04-01 21:40:00,55.8,49.6,30.20,WNW,282,1.0,4.0,80,0.00,,,0.00,meteohub,2013-04-02 04:40:00,
2013-04-01 21:45:00,55.8,49.6,30.20,NW,316,4.0,5.0,80,0.00,,,0.00,meteohub,2013-04-02 04:45:00,
2013-04-01 21:50:00,55.4,48.9,30.20,NNW,340,3.0,5.0,79,0.00,,,0.00,meteohub,2013-04-02 04:50:00,
2013-04-01 21:55:00,55.2,48.7,30.21,NW,315,4.0,6.0,79,0.00,,,0.00,meteohub,2013-04-02 04:55:00,
2013-04-01 22:00:00,55.0,48.6,30.21,NW,315,2.0,6.0,79,0.00,,,0.00,meteohub,2013-04-02 05:00:00,
2013-04-01 22:06:00,55.0,48.9,30.21,NW,315,2.0,6.0,80,0.00,,,0.00,meteohub,2013-04-02 05:06:00,
2013-04-01 22:11:00,55.0,48.9,30.21,NW,314,4.0,5.0,80,0.00,,,0.00,meteohub,2013-04-02 05:11:00,
2013-04-01 22:16:00,54.9,48.7,30.21,WNW,285,2.0,5.0,80,0.00,,,0.00,meteohub,2013-04-02 05:16:00,
2013-04-01 22:21:00,54.9,48.7,30.21,WNW,285,5.0,5.0,80,0.00,,,0.00,meteohub,2013-04-02 05:21:00,
2013-04-01 22:26:00,54.7,48.6,30.21,West,280,0.0,6.0,80,0.00,,,0.00,meteohub,2013-04-02 05:26:00,
2013-04-01 22:32:00,54.7,48.6,30.21,WNW,282,0.0,6.0,80,0.00,,,0.00,meteohub,2013-04-02 05:32:00,
2013-04-01 22:37:00,54.7,48.6,30.21,West,281,1.0,6.0,80,0.00,,,0.00,meteohub,2013-04-02 05:37:00,
2013-04-01 22:42:00,54.5,48.4,30.21,West,280,0.0,4.0,80,0.00,,,0.00,meteohub,2013-04-02 05:42:00,
2013-04-01 22:47:00,54.3,48.6,30.21,West,280,0.0,4.0,81,0.00,,,0.00,meteohub,2013-04-02 05:47:00,
2013-04-01 22:52:00,54.3,48.6,30.20,West,280,0.0,4.0,81,0.00,,,0.00,meteohub,2013-04-02 05:52:00,
2013-04-01 22:57:00,54.3,48.9,30.20,West,281,2.0,4.0,82,0.00,,,0.00,meteohub,2013-04-02 05:57:00,
2013-04-01 23:02:00,54.1,48.7,30.20,West,280,1.0,4.0,82,0.00,,,0.00,meteohub,2013-04-02 06:02:00,
2013-04-01 23:07:00,53.6,48.2,30.20,West,281,2.0,4.0,82,0.00,,,0.00,meteohub,2013-04-02 06:07:00,
2013-04-01 23:12:00,53.2,48.2,30.20,WNW,282,0.0,3.0,83,0.00,,,0.00,meteohub,2013-04-02 06:12:00,
2013-04-01 23:17:00,53.1,48.4,30.20,West,281,0.0,3.0,84,0.00,,,0.00,meteohub,2013-04-02 06:17:00,
2013-04-01 23:23:00,52.9,48.2,30.20,WNW,283,2.0,3.0,84,0.00,,,0.00,meteohub,2013-04-02 06:23:00,
2013-04-01 23:28:00,52.5,48.2,30.20,WNW,285,2.0,3.0,85,0.00,,,0.00,meteohub,2013-04-02 06:28:00,
2013-04-01 23:33:00,52.5,48.2,30.20,WNW,284,2.0,3.0,85,0.00,,,0.00,meteohub,2013-04-02 06:33:00,
2013-04-01 23:38:00,52.3,48.2,30.20,NW,318,1.0,3.0,86,0.00,,,0.00,meteohub,2013-04-02 06:38:00,
2013-04-01 23:43:00,52.3,48.2,30.20,NW,318,0.0,3.0,86,0.00,,,0.00,meteohub,2013-04-02 06:43:00,
2013-04-01 23:48:00,52.3,48.2,30.21,NW,318,0.0,3.0,86,0.00,,,0.00,meteohub,2013-04-02 06:48:00,
2013-04-01 23:54:00,52.2,48.0,30.21,NW,318,0.0,2.0,86,0.00,,,0.00,meteohub,2013-04-02 06:54:00,
2013-04-01 23:59:00,52.2,48.0,30.21,NW,318,0.0,2.0,86,0.00,,,0.00,meteohub,2013-04-02 06:59:00,